�������l�o���
Date,Time,MP-1(��Sv/h),MP-2(��Sv/h),MP-3(��Sv/h),MP-4(��Sv/h),MP-5(��Sv/h),MP-6(��Sv/h),MP-7(��Sv/h),MP-8(��Sv/h),����,����(m/s),���J
2014/12/02,00:00,1.968,3.520,3.847,3.498,3.645,1.238,1.907,2.150,�k��,6.3,��
2014/12/02,00:10,1.972,3.522,3.848,3.497,3.642,1.238,1.905,2.145,�k��,3.6,��
2014/12/02,00:20,1.970,3.527,3.848,3.500,3.645,1.240,1.905,2.145,�k��,6.0,��
2014/12/02,00:30,1.970,3.523,3.848,3.503,3.648,1.240,1.905,2.150,���k��,6.7,��
2014/12/02,00:40,1.972,3.523,3.853,3.502,3.648,1.242,1.903,2.150,��,11.9,��
2014/12/02,00:50,1.972,3.532,3.855,3.503,3.647,1.240,1.905,2.152,��,12.4,��
2014/12/02,01:00,1.973,3.533,3.860,3.507,3.650,1.240,1.905,2.152,��,16.2,��
2014/12/02,01:10,1.975,3.535,3.857,3.510,3.652,1.238,1.905,2.150,��,16.2,��
2014/12/02,01:20,1.975,3.530,3.858,3.510,3.653,1.243,1.907,2.153,��,15.8,��
2014/12/02,01:30,1.975,3.532,3.857,3.508,3.655,1.245,1.908,2.155,��,14.1,��
2014/12/02,01:40,1.977,3.533,3.857,3.507,3.660,1.243,1.907,2.152,��,14.5,��
2014/12/02,01:50,1.977,3.533,3.860,3.515,3.657,1.240,1.908,2.150,��,13.5,��
2014/12/02,02:00,1.978,3.535,3.860,3.515,3.658,1.242,1.905,2.153,��,14.5,��
2014/12/02,02:10,1.978,3.535,3.863,3.512,3.658,1.243,1.905,2.153,��,15.4,��
2014/12/02,02:20,1.977,3.538,3.863,3.513,3.662,1.247,1.907,2.153,��,14.1,��
2014/12/02,02:30,1.978,3.540,3.867,3.518,3.665,1.243,1.907,2.157,��,17.1,��
2014/12/02,02:40,1.977,3.540,3.865,3.515,3.663,1.243,1.908,2.155,��,15.2,��
2014/12/02,02:50,1.977,3.542,3.868,3.520,3.663,1.242,1.908,2.157,��,15.1,��
2014/12/02,03:00,1.980,3.537,3.870,3.520,3.665,1.242,1.907,2.153,��,15.5,��
2014/12/02,03:10,1.980,3.543,3.868,3.522,3.663,1.243,1.908,2.155,��,14.3,��
2014/12/02,03:20,1.975,3.542,3.868,3.517,3.665,1.242,1.905,2.155,��,13.8,��
2014/12/02,03:30,1.980,3.545,3.870,3.523,3.668,1.242,1.905,2.153,��,12.7,��
2014/12/02,03:40,1.978,3.547,3.868,3.525,3.668,1.242,1.907,2.153,��,15.5,��
2014/12/02,03:50,1.980,3.545,3.872,3.527,3.672,1.240,1.907,2.153,��,14.9,��
2014/12/02,04:00,1.980,3.545,3.873,3.525,3.675,1.238,1.905,2.157,��,13.8,��
2014/12/02,04:10,1.978,3.548,3.875,3.527,3.672,1.243,1.908,2.155,��,16.0,��
2014/12/02,04:20,1.980,3.547,3.872,3.528,3.672,1.240,1.905,2.158,��,14.1,��
2014/12/02,04:30,1.980,3.547,3.872,3.528,3.672,1.240,1.905,2.157,��,13.2,��
2014/12/02,04:40,1.978,3.550,3.875,3.532,3.667,1.240,1.907,2.158,��,13.0,��
2014/12/02,04:50,1.982,3.550,3.873,3.527,3.672,1.240,1.905,2.157,��,15.4,��
2014/12/02,05:00,1.982,3.553,3.872,3.527,3.677,1.238,1.907,2.155,��,12.1,��
2014/12/02,05:10,1.982,3.548,3.877,3.532,3.675,1.240,1.907,2.157,��,14.8,��
2014/12/02,05:20,1.977,3.553,3.877,3.527,3.672,1.238,1.907,2.158,��,13.7,��
2014/12/02,05:30,1.980,3.553,3.878,3.525,3.672,1.240,1.907,2.158,��,15.5,��
2014/12/02,05:40,1.983,3.553,3.875,3.527,3.675,1.238,1.907,2.155,��,14.3,��
2014/12/02,05:50,1.980,3.553,3.878,3.530,3.678,1.242,1.908,2.158,��,13.2,��
2014/12/02,06:00,1.978,3.553,3.878,3.533,3.680,1.238,1.905,2.158,��,14.1,��
2014/12/02,06:10,1.980,3.557,3.878,3.532,3.677,1.240,1.905,2.155,��,11.9,��
2014/12/02,06:20,1.980,3.553,3.878,3.532,3.678,1.240,1.907,2.155,��,13.2,��
2014/12/02,06:30,1.982,3.553,3.878,3.532,3.673,1.238,1.905,2.157,��,12.6,��
2014/12/02,06:40,1.980,3.552,3.875,3.533,3.673,1.238,1.903,2.155,��,11.6,��
2014/12/02,06:50,1.983,3.555,3.880,3.535,3.673,1.238,1.905,2.157,��,14.1,��
2014/12/02,07:00,1.982,3.557,3.882,3.533,3.675,1.238,1.908,2.155,��,13.5,��
2014/12/02,07:10,1.982,3.558,3.878,3.532,3.675,1.235,1.907,2.155,��,12.7,��
2014/12/02,07:20,1.982,3.562,3.877,3.535,3.673,1.235,1.907,2.153,��,14.5,��
2014/12/02,07:30,1.980,3.557,3.883,3.535,3.672,1.237,1.903,2.155,��,13.7,��
2014/12/02,07:40,1.980,3.560,3.887,3.535,3.673,1.238,1.905,2.155,��,13.4,��
2014/12/02,07:50,1.982,3.563,3.885,3.533,3.680,1.235,1.907,2.157,��,10.4,��
2014/12/02,08:00,1.982,3.560,3.887,3.535,3.683,1.237,1.907,2.158,��,8.5,��
2014/12/02,08:10,1.980,3.558,3.888,3.537,3.685,1.238,1.907,2.157,��,9.7,��
2014/12/02,08:20,1.983,3.567,3.885,3.538,3.687,1.242,1.907,2.158,���쐼,8.0,��
2014/12/02,08:30,1.983,3.563,3.888,3.540,3.685,1.238,1.910,2.157,��,10.7,��
2014/12/02,08:40,1.983,3.555,3.890,3.538,3.685,1.238,1.910,2.157,���쐼,9.9,��
2014/12/02,08:50,1.980,3.565,3.893,3.542,3.672,1.237,1.908,2.155,��,9.1,��
2014/12/02,09:00,1.983,3.565,3.895,3.540,3.688,1.237,1.910,2.158,��,8.6,��
2014/12/02,09:10,1.983,3.565,3.897,3.543,3.692,1.235,1.910,2.157,��,7.8,��
2014/12/02,09:20,1.985,3.568,3.893,3.547,3.697,1.238,1.910,2.160,���쐼,9.9,��
2014/12/02,09:30,1.985,3.570,3.893,3.550,3.695,1.240,1.910,2.158,��,8.8,��
2014/12/02,09:40,1.987,3.573,3.893,3.547,3.702,1.245,1.910,2.160,���쐼,11.3,��
2014/12/02,09:50,1.985,3.575,3.895,3.542,3.697,1.240,1.910,2.158,���쐼,9.6,��
2014/12/02,10:00,1.983,3.575,3.895,3.547,3.705,1.243,1.913,2.158,���쐼,8.9,��
2014/12/02,10:10,1.978,3.582,3.897,3.548,3.708,1.242,1.910,2.160,���쐼,7.7,��
2014/12/02,10:20,1.978,3.578,3.898,3.548,3.703,1.243,1.908,2.162,��,9.6,��
2014/12/02,10:30,1.975,3.580,3.898,3.548,3.708,1.242,1.912,2.160,��,10.8,��
2014/12/02,10:40,1.980,3.580,-,3.552,3.712,1.243,1.913,2.158,��,11.5,��
2014/12/02,10:50,1.982,3.587,3.900,3.548,3.710,1.240,1.912,2.163,��,12.1,��
2014/12/02,11:00,1.987,3.588,3.905,3.553,3.715,1.238,1.912,2.163,���쐼,10.1,��
2014/12/02,11:10,1.985,3.588,3.903,3.555,3.718,1.237,1.912,2.162,��,9.0,��
2014/12/02,11:20,1.985,3.585,3.907,3.557,3.715,1.238,1.913,2.158,���쐼,9.1,��
2014/12/02,11:30,1.985,3.590,3.908,3.558,3.718,1.238,1.912,2.162,���쐼,12.1,��
2014/12/02,11:40,1.988,3.593,3.907,3.560,3.722,1.238,1.913,2.162,��,8.8,��
2014/12/02,11:50,1.987,3.597,-,3.555,3.723,1.237,1.915,2.162,���쐼,9.9,��
2014/12/02,12:00,1.987,3.592,-,3.557,3.722,1.240,1.915,2.163,���쐼,8.0,��
2014/12/02,12:10,1.985,3.595,3.908,3.560,3.723,1.235,1.915,2.163,��,9.1,��
2014/12/02,12:20,1.990,3.593,3.912,3.557,3.730,1.235,1.915,2.163,���쐼,10.2,��
2014/12/02,12:30,1.987,3.593,3.915,3.557,3.728,1.238,1.915,2.163,��,7.2,��
2014/12/02,12:40,1.987,3.595,3.912,3.558,3.725,1.238,1.913,2.163,���쐼,8.2,��
2014/12/02,12:50,1.988,3.600,3.915,3.558,3.730,1.238,1.913,2.163,��,8.2,��
2014/12/02,13:00,1.992,3.605,3.915,3.560,3.730,1.238,1.915,2.163,���쐼,8.3,��
2014/12/02,13:10,1.990,3.600,3.918,3.562,3.733,1.240,1.913,2.163,��,10.1,��
2014/12/02,13:20,1.988,3.600,3.920,3.560,3.735,1.238,1.912,2.165,��,8.2,��
2014/12/02,13:30,1.988,3.600,3.920,3.560,3.733,1.240,1.915,2.165,��,8.3,��
2014/12/02,13:40,1.987,3.600,3.920,-,3.733,1.238,1.915,2.165,���k��,9.3,��
2014/12/02,13:50,1.992,3.602,3.923,-,3.732,1.238,1.915,2.163,��,7.2,��
2014/12/02,14:00,1.990,3.602,3.922,3.560,3.733,1.240,1.915,2.163,��,7.2,��
2014/12/02,14:10,1.993,3.602,3.925,3.562,3.732,1.237,1.915,2.163,��,7.9,��
2014/12/02,14:20,1.992,3.600,3.918,3.562,3.733,1.237,1.913,2.165,��,8.5,��
2014/12/02,14:30,1.990,3.605,3.920,3.565,3.732,1.235,1.912,2.165,��,6.3,��
2014/12/02,14:40,1.990,3.607,3.920,3.562,3.737,1.235,1.913,2.167,���k��,7.9,��
2014/12/02,14:50,1.990,3.603,3.922,-,3.735,1.232,1.913,2.163,��,8.3,��
2014/12/02,15:00,1.993,3.605,3.918,-,3.737,1.233,1.910,2.165,���k��,7.5,��
2014/12/02,15:10,1.988,3.607,3.920,3.567,3.737,1.233,1.917,2.165,��,7.8,��
2014/12/02,15:20,1.987,3.603,3.920,3.565,3.738,1.233,1.913,2.165,��,8.9,��
2014/12/02,15:30,1.993,3.602,3.922,3.562,3.735,1.238,1.913,2.162,��,7.1,��
2014/12/02,15:40,1.990,3.603,3.917,3.563,3.735,1.237,1.912,2.167,��,7.1,��
2014/12/02,15:50,1.990,3.603,3.920,3.565,3.735,1.237,1.913,2.163,��,8.2,��
2014/12/02,16:00,1.988,3.602,3.923,3.563,3.735,1.235,1.915,2.167,��,9.6,��
2014/12/02,16:10,1.988,3.602,3.922,3.563,3.730,1.237,1.913,2.167,��,10.2,��
2014/12/02,16:20,1.987,3.597,3.922,3.565,3.732,1.238,1.913,2.165,��,8.8,��
2014/12/02,16:30,1.990,3.602,3.917,3.568,3.730,1.237,1.913,2.165,��,8.5,��
2014/12/02,16:40,1.988,3.605,3.917,3.567,3.730,1.235,1.913,2.163,��,8.8,��
2014/12/02,16:50,1.985,3.603,3.917,3.563,3.732,1.233,1.910,2.163,��,7.7,��
2014/12/02,17:00,1.988,3.600,3.913,3.560,3.730,1.237,1.912,2.165,��,8.2,��
2014/12/02,17:10,1.985,3.603,3.922,3.563,3.728,1.235,1.912,2.163,��,7.7,��
2014/12/02,17:20,1.988,3.603,3.920,3.567,3.730,1.235,1.912,2.167,��,8.8,��
2014/12/02,17:30,1.987,3.602,3.920,3.568,3.730,1.235,1.912,2.167,��,8.6,��
2014/12/02,17:40,1.990,3.603,3.918,3.563,3.735,1.238,1.910,2.165,��,8.0,��
2014/12/02,17:50,1.990,3.603,3.915,3.562,3.728,1.235,1.910,2.163,��,8.5,��
2014/12/02,18:00,1.990,3.600,3.917,3.562,3.735,1.237,1.912,2.163,��,6.8,��
2014/12/02,18:10,1.987,3.603,3.913,3.563,3.732,1.235,1.910,2.165,��,7.7,��
2014/12/02,18:20,1.990,3.603,3.915,3.560,3.730,1.233,1.910,2.163,��,6.8,��
2014/12/02,18:30,1.990,3.600,3.915,3.562,3.732,1.233,1.912,2.163,��,7.1,��
2014/12/02,18:40,1.990,3.597,3.917,3.567,3.727,1.235,1.912,2.163,��,6.6,��
2014/12/02,18:50,1.988,3.598,3.913,3.562,3.727,1.233,1.910,2.165,��,5.8,��
2014/12/02,19:00,1.987,3.595,3.915,3.560,3.730,1.233,1.910,2.167,���쐼,4.5,��
2014/12/02,19:10,1.987,3.593,3.915,3.558,3.733,1.237,1.912,2.167,��,4.8,��
2014/12/02,19:20,1.987,3.598,3.915,3.563,3.730,1.237,1.908,2.165,��,5.6,��
2014/12/02,19:30,1.983,3.598,3.918,3.563,3.732,1.238,1.908,2.163,��,7.7,��
2014/12/02,19:40,1.985,3.597,3.917,3.563,3.733,1.238,1.910,2.165,��,7.4,��
2014/12/02,19:50,1.985,3.598,3.918,3.565,3.733,1.235,1.912,2.165,���쐼,7.7,��
2014/12/02,20:00,1.987,3.603,3.920,3.560,3.732,1.238,1.912,2.165,���쐼,5.6,��
2014/12/02,20:10,1.992,3.605,3.917,3.560,3.732,1.238,1.910,2.163,���쐼,5.2,��
2014/12/02,20:20,1.990,3.603,3.915,3.563,3.733,1.238,1.910,2.163,�쐼,5.1,��
2014/12/02,20:30,1.988,3.600,3.917,3.563,3.733,1.238,1.910,2.165,�쐼,5.3,��
2014/12/02,20:40,1.990,3.598,3.915,3.562,3.733,1.237,1.912,2.165,�쐼,7.1,��
2014/12/02,20:50,1.992,3.603,3.922,3.562,3.732,1.240,1.910,2.165,�쐼,6.0,��
2014/12/02,21:00,1.992,3.607,3.920,3.560,3.732,1.242,1.908,2.165,���쐼,7.4,��
2014/12/02,21:10,1.992,3.608,3.917,3.563,3.733,1.238,1.912,2.162,�쐼,7.4,��
2014/12/02,21:20,1.988,3.602,3.918,3.563,3.737,1.237,1.912,2.165,���쐼,8.8,��
2014/12/02,21:30,1.990,3.603,3.920,3.565,3.737,1.240,1.910,2.163,���쐼,7.2,��
2014/12/02,21:40,1.990,3.607,3.922,3.563,3.737,1.240,1.910,2.163,���쐼,9.4,��
2014/12/02,21:50,1.988,3.605,3.920,3.567,3.735,1.240,1.912,2.165,���쐼,7.5,��
2014/12/02,22:00,1.990,3.602,3.917,3.567,3.740,1.238,1.913,2.165,���쐼,8.2,��
2014/12/02,22:10,1.990,3.603,3.923,3.565,3.737,1.238,1.912,2.167,���쐼,6.8,��
2014/12/02,22:20,1.990,3.605,3.922,3.568,3.737,1.238,1.912,2.165,���쐼,4.4,��
2014/12/02,22:30,1.990,3.607,3.918,3.568,3.737,1.238,1.910,2.163,��,3.1,��
2014/12/02,22:40,1.990,3.603,3.915,3.565,3.733,1.237,1.913,2.162,��,2.1,��
2014/12/02,22:50,1.985,3.603,3.917,3.563,3.732,1.237,1.912,2.163,���쐼,1.4,��
2014/12/02,23:00,1.985,3.602,3.917,3.563,3.728,1.235,1.910,2.165,��쐼,0.9,��
2014/12/02,23:10,1.985,3.602,3.917,3.565,3.728,1.235,1.908,2.163,��쐼,1.7,��
2014/12/02,23:20,1.988,3.603,3.918,3.560,3.737,1.238,1.908,2.163,��,2.7,��
2014/12/02,23:30,1.990,3.600,3.915,3.558,3.738,1.235,1.908,2.165,��,3.9,��
2014/12/02,23:40,1.987,3.600,3.915,3.558,3.730,1.237,1.907,2.165,��쐼,4.4,��
2014/12/02,23:50,1.987,3.603,3.918,3.562,3.735,1.235,1.907,2.163,��쐼,4.4,��
